| time (UTC) | temp C | wind direction | speed KPH | gust KPH | rain 1hr cm | rain 24hr cm | rain mn cm | humidity % | barometer mb |
| 20260831040053 | 18 | 325 | 0.0 | 9.7 | 0.00 | 0.00 | 0.00 | 62 | 1015.8 |
| 20260831034551 | 18 | 0 | 0.0 | 8.0 | 0.00 | 0.00 | 0.00 | 59 | 1015.8 |
| 20260831033100 | 19 | 311 | 0.0 | 9.7 | 0.00 | 0.00 | 0.00 | 57 | 1015.9 |
| 20260831031553 | 20 | 298 | 4.8 | 9.7 | 0.00 | 0.00 | 0.00 | 56 | 1015.8 |
| 20260831030050 | 20 | 333 | 0.0 | 8.0 | 0.00 | 0.00 | 0.00 | 55 | 1015.8 |
| 20260831024601 | 20 | 327 | 3.2 | 9.7 | 0.00 | 0.00 | 0.00 | 53 | 1015.7 |
| 20260831023056 | 21 | 298 | 4.8 | 12.9 | 0.00 | 0.00 | 0.00 | 52 | 1015.9 |
| 20260831021550 | 21 | 300 | 6.4 | 12.9 | 0.00 | 0.00 | 0.00 | 51 | 1015.9 |
| 20260831020104 | 21 | 307 | 4.8 | 14.5 | 0.00 | 0.00 | 0.00 | 50 | 1015.9 |
| 20260831014557 | 22 | 329 | 4.8 | 14.5 | 0.00 | 0.00 | 0.00 | 49 | 1016.1 |
| 20260831013103 | 22 | 338 | 4.8 | 17.7 | 0.00 | 0.00 | 0.00 | 48 | 1016.4 |
| 20260831011557 | 22 | 5 | 8.0 | 16.1 | 0.00 | 0.00 | 0.00 | 47 | 1016.4 |
| 20260831010055 | 22 | 238 | 4.8 | 16.1 | 0.00 | 0.00 | 0.00 | 47 | 1016.6 |
| 20260831004555 | 22 | 355 | 6.4 | 12.9 | 0.00 | 0.00 | 0.00 | 47 | 1016.6 |
| 20260831003054 | 23 | 299 | 4.8 | 16.1 | 0.00 | 0.00 | 0.00 | 44 | 1016.8 |
| 20260831001556 | 23 | 5 | 3.2 | 12.9 | 0.00 | 0.00 | 0.00 | 45 | 1016.8 |
| 20260831000059 | 23 | 267 | 4.8 | 16.1 | 0.00 | 0.00 | 0.00 | 43 | 1016.9 |
| 20260830234555 | 23 | 315 | 6.4 | 16.1 | 0.00 | 0.00 | 0.00 | 44 | 1017.0 |
| 20260830233053 | 23 | 264 | 4.8 | 14.5 | 0.00 | 0.00 | 0.00 | 43 | 1017.2 |
| 20260830231556 | 23 | 352 | 4.8 | 12.9 | 0.00 | 0.00 | 0.00 | 43 | 1017.3 |
| 20260830230054 | 23 | 28 | 9.7 | 17.7 | 0.00 | 0.00 | 0.00 | 43 | 1017.5 |
| 20260830224549 | 23 | 323 | 8.0 | 17.7 | 0.00 | 0.00 | 0.00 | 43 | 1017.8 |
| 20260830223110 | 22 | 308 | 1.6 | 14.5 | 0.00 | 0.00 | 0.00 | 45 | 1017.9 |
| 20260830221556 | 22 | 101 | 3.2 | 14.5 | 0.00 | 0.00 | 0.00 | 45 | 1018.3 |
| 20260830220105 | 23 | 273 | 4.8 | 16.1 | 0.00 | 0.00 | 0.00 | 45 | 1018.5 |
| 20260830214615 | 23 | 271 | 6.4 | 17.7 | 0.00 | 0.00 | 0.00 | 43 | 1018.7 |
| 20260830213048 | 22 | 291 | 8.0 | 19.3 | 0.00 | 0.00 | 0.00 | 45 | 1018.9 |
| 20260830211557 | 21 | 320 | 1.6 | 17.7 | 0.00 | 0.00 | 0.00 | 48 | 1019.0 |
| 20260830210117 | 22 | 206 | 4.8 | 16.1 | 0.00 | 0.00 | 0.00 | 45 | 1019.2 |
| 20260830204559 | 21 | 319 | 3.2 | 8.0 | 0.00 | 0.00 | 0.00 | 47 | 1019.4 |
| 20260830203051 | 22 | 317 | 3.2 | 14.5 | 0.00 | 0.00 | 0.00 | 48 | 1019.6 |
| 20260830201601 | 20 | 261 | 1.6 | 11.3 | 0.00 | 0.00 | 0.00 | 49 | 1019.8 |
| 20260830200055 | 20 | 344 | 4.8 | 16.1 | 0.00 | 0.00 | 0.00 | 54 | 1019.9 |
| 20260830194557 | 19 | 263 | 4.8 | 12.9 | 0.00 | 0.00 | 0.00 | 50 | 1020.0 |
| 20260830193102 | 19 | 337 | 4.8 | 14.5 | 0.00 | 0.00 | 0.00 | 54 | 1020.2 |
| 20260830191554 | 18 | 293 | 3.2 | 12.9 | 0.00 | 0.00 | 0.00 | 54 | 1020.3 |
| 20260830190124 | 18 | 273 | 4.8 | 12.9 | 0.00 | 0.00 | 0.00 | 56 | 1020.4 |
| 20260830184603 | 17 | 318 | 3.2 | 8.0 | 0.00 | 0.00 | 0.00 | 61 | 1020.6 |
| 20260830183059 | 17 | 340 | 1.6 | 6.4 | 0.00 | 0.00 | 0.00 | 61 | 1020.6 |
| 20260830181556 | 18 | 279 | 3.2 | 12.9 | 0.00 | 0.00 | 0.00 | 59 | 1020.6 |
| 20260830180110 | 17 | 109 | 0.0 | 8.0 | 0.00 | 0.00 | 0.00 | 62 | 1020.6 |
| 20260830174606 | 17 | 0 | 0.0 | 9.7 | 0.00 | 0.00 | 0.00 | 60 | 1020.6 |
| 20260830173057 | 18 | 271 | 3.2 | 8.0 | 0.00 | 0.00 | 0.00 | 63 | 1020.7 |
| 20260830171550 | 17 | 360 | 6.4 | 12.9 | 0.00 | 0.00 | 0.00 | 63 | 1020.7 |
| 20260830170100 | 16 | 84 | 1.6 | 6.4 | 0.00 | 0.00 | 0.00 | 69 | 1020.7 |
| 20260830164559 | 16 | 86 | 3.2 | 6.4 | 0.00 | 0.00 | 0.00 | 74 | 1020.6 |
| 20260830163101 | 15 | 0 | 1.6 | 4.8 | 0.00 | 0.00 | 0.00 | 79 | 1020.8 |
| 20260830161555 | 13 | 0 | 0.0 | 3.2 | 0.00 | 0.00 | 0.00 | 82 | 1021.0 |
| 20260830160055 | 12 | 0 | 0.0 | 0.0 | 0.00 | 0.00 | 0.00 | 84 | 1020.9 |
| 20260830154600 | 12 | 0 | 0.0 | 0.0 | 0.00 | 0.00 | 0.00 | 84 | 1021.0 |
| 20260830153100 | 12 | 0 | 0.0 | 0.0 | 0.00 | 0.00 | 0.00 | 86 | 1021.1 |
| 20260830151601 | 11 | 0 | 0.0 | 0.0 | 0.00 | 0.00 | 0.00 | 86 | 1021.3 |
| 20260830150101 | 11 | 0 | 0.0 | 0.0 | 0.00 | 0.00 | 0.00 | 86 | 1021.2 |
| 20260830144556 | 11 | 0 | 0.0 | 0.0 | 0.00 | 0.00 | 0.00 | 86 | 1021.3 |
| 20260830143058 | 10 | 0 | 0.0 | 0.0 | 0.00 | 0.00 | 0.00 | 86 | 1021.3 |
| 20260830141559 | 10 | 0 | 0.0 | 0.0 | 0.00 | 0.00 | 0.00 | 86 | 1021.3 |
| 20260830140052 | 10 | 0 | 0.0 | 0.0 | 0.00 | 0.00 | 0.00 | 85 | 1021.2 |
| 20260830134550 | 10 | 0 | 0.0 | 0.0 | 0.00 | 0.00 | 0.00 | 86 | 1021.0 |
| 20260830133100 | 10 | 0 | 0.0 | 0.0 | 0.00 | 0.00 | 0.00 | 86 | 1021.0 |
| 20260830131558 | 10 | 0 | 0.0 | 0.0 | 0.00 | 0.00 | 0.00 | 86 | 1021.0 |
| 20260830130057 | 10 | 0 | 0.0 | 0.0 | 0.00 | 0.00 | 0.00 | 86 | 1020.9 |
| 20260830124546 | 10 | 0 | 0.0 | 0.0 | 0.00 | 0.00 | 0.00 | 86 | 1020.8 |
| 20260830123102 | 10 | 0 | 0.0 | 0.0 | 0.00 | 0.00 | 0.00 | 86 | 1020.8 |
| 20260830121553 | 10 | 0 | 0.0 | 4.8 | 0.00 | 0.00 | 0.00 | 87 | 1020.8 |
| 20260830120104 | 10 | 0 | 0.0 | 0.0 | 0.00 | 0.00 | 0.00 | 86 | 1020.7 |
| 20260830114557 | 10 | 0 | 0.0 | 0.0 | 0.00 | 0.00 | 0.00 | 86 | 1020.8 |
| 20260830113047 | 10 | 0 | 0.0 | 0.0 | 0.00 | 0.00 | 0.00 | 86 | 1020.7 |
| 20260830111556 | 10 | 0 | 0.0 | 0.0 | 0.00 | 0.00 | 0.00 | 85 | 1020.6 |
| 20260830110059 | 10 | 0 | 0.0 | 3.2 | 0.00 | 0.00 | 0.00 | 85 | 1020.7 |
| 20260830104606 | 10 | 0 | 0.0 | 3.2 | 0.00 | 0.00 | 0.00 | 85 | 1020.7 |
| 20260830103101 | 10 | 0 | 0.0 | 0.0 | 0.00 | 0.00 | 0.00 | 84 | 1020.7 |
| 20260830101555 | 10 | 0 | 0.0 | 0.0 | 0.00 | 0.00 | 0.00 | 84 | 1020.5 |
| 20260830100056 | 10 | 0 | 0.0 | 0.0 | 0.00 | 0.00 | 0.00 | 83 | 1020.5 |
| 20260830094547 | 11 | 0 | 0.0 | 0.0 | 0.00 | 0.00 | 0.00 | 83 | 1020.6 |
| 20260830093102 | 11 | 0 | 0.0 | 0.0 | 0.00 | 0.00 | 0.00 | 82 | 1020.6 |
| 20260830091602 | 11 | 0 | 0.0 | 8.0 | 0.00 | 0.00 | 0.00 | 81 | 1020.5 |
| 20260830090100 | 11 | 162 | 1.6 | 6.4 | 0.00 | 0.00 | 0.00 | 81 | 1020.5 |
| 20260830084558 | 11 | 0 | 0.0 | 0.0 | 0.00 | 0.00 | 0.00 | 81 | 1020.6 |
| 20260830083059 | 12 | 0 | 0.0 | 0.0 | 0.00 | 0.00 | 0.00 | 80 | 1020.5 |
| 20260830081558 | 12 | 0 | 0.0 | 0.0 | 0.00 | 0.00 | 0.00 | 79 | 1020.5 |
| 20260830080059 | 12 | 0 | 0.0 | 0.0 | 0.00 | 0.00 | 0.00 | 78 | 1020.4 |
| 20260830074555 | 13 | 0 | 0.0 | 0.0 | 0.00 | 0.00 | 0.00 | 77 | 1020.5 |
| 20260830073112 | 13 | 0 | 0.0 | 3.2 | 0.00 | 0.00 | 0.00 | 75 | 1020.5 |
| 20260830071554 | 13 | 0 | 0.0 | 0.0 | 0.00 | 0.00 | 0.00 | 73 | 1020.5 |
| 20260830070058 | 14 | 0 | 0.0 | 0.0 | 0.00 | 0.00 | 0.00 | 71 | 1020.5 |
| 20260830064552 | 15 | 0 | 0.0 | 8.0 | 0.00 | 0.00 | 0.00 | 69 | 1020.5 |
| 20260830063108 | 15 | 317 | 1.6 | 4.8 | 0.00 | 0.00 | 0.00 | 69 | 1020.5 |
| 20260830061555 | 15 | 0 | 0.0 | 4.8 | 0.00 | 0.00 | 0.00 | 67 | 1020.5 |
| 20260830060057 | 15 | 322 | 1.6 | 6.4 | 0.00 | 0.00 | 0.00 | 66 | 1020.5 |
| 20260830054556 | 15 | 349 | 3.2 | 11.3 | 0.00 | 0.00 | 0.00 | 65 | 1020.6 |
| 20260830053050 | 16 | 315 | 1.6 | 9.7 | 0.00 | 0.00 | 0.00 | 63 | 1020.5 |
| 20260830051555 | 16 | 342 | 0.0 | 9.7 | 0.00 | 0.00 | 0.00 | 62 | 1020.4 |
| 20260830050106 | 16 | 338 | 1.6 | 12.9 | 0.00 | 0.00 | 0.00 | 61 | 1020.3 |
| 20260830044558 | 16 | 340 | 4.8 | 20.9 | 0.00 | 0.00 | 0.00 | 59 | 1020.2 |
| 20260830043100 | 17 | 41 | 3.2 | 17.7 | 0.00 | 0.00 | 0.00 | 58 | 1020.1 |
| 20260830041606 | 17 | 289 | 4.8 | 16.1 | 0.00 | 0.00 | 0.00 | 57 | 1019.9 |
| 20260830040115 | 17 | 327 | 4.8 | 20.9 | 0.00 | 0.00 | 0.00 | 56 | 1019.7 |